Regional Weather Roundup
Issued by NWS

Home | Current Version | Previous Version | Text Only | Print | Product List | Glossary Off
Versions: 1 2 3 4 5 6 7 8 9 10 11 12 13 14 15 16 17 18 19 20 21 22 23 24 25 26 27 28 29 30 31 32 33 34 35 36 37 38 39 40 41 42 43 44 45 46 47 48 49 50

000
ASUS43 KIND 220009
RWRIN

WEATHER ROUNDUP FOR INDIANA
NATIONAL WEATHER SERVICE INDIANAPOLIS IN
800 PM EDT SAT APR 21 2018

NOTE: "FAIR" INDICATES FEW OR NO CLOUDS BELOW 12,000 FEET WITH NO
SIGNIFICANT WEATHER AND/OR OBSTRUCTIONS TO VISIBILITY.

* - STATION DOES NOT REPORT WEATHER SUCH AS PRECIPITATION OR FOG.

+ - STATION NOT QUALITY CONTROLLED BY THE NATIONAL WEATHER SERVICE.
    USE DATA WITH CAUTION...ESPECIALLY DEWPOINT AND RELATIVE
    HUMIDITY OBSERVATIONS.

INZ001>003-010>013-019-020-220100-
NORTHWEST INDIANA

CITY           SKY/WX    TMP DP  RH WIND       PRES   REMARKS
GARY /AIRPORT/ CLOUDY    45  27  49 NE8       30.37F
KNOX *+        FAIR      52  28  40 E5        30.34S
LA PORTE +     FAIR      50  32  50 N5        30.36S
6HR MIN TEMP:  50; 6HR MAX TEMP:  54;

MICHIGAN CITY+ FAIR      46  25  42 N3        30.37S
MONTICELLO +   CLOUDY    55  24  30 E8        30.32F
6HR MIN TEMP:  54; 6HR MAX TEMP:  58;

RENSSELAER +   FAIR      54  16  22 E7        30.34S
VALPARAISO     FAIR      51  32  48 N5        30.35F
6HR MIN TEMP:  51; 6HR MAX TEMP:  57;


$$

LMZ046-743>745-220100-
SOUTHERN LAKE MICHIGAN

STATION/POSITION TIME  TEMP    WIND        PRES    WAVE
                       AIR SEA DIR/SP/G            HT
                 (UTC) (F)     (DEG/KT/KT) (MB)    (FT)
BURNS HARBOR     2340   43      60/  8/ 10 1028.4F
MICHIGAN CITY    2340   43      30/ 10/ 10   N/A

$$

INZ004-005-014>016-021>024-220100-
NORTH CENTRAL INDIANA

CITY           SKY/WX    TMP DP  RH WIND       PRES   REMARKS
GOSHEN         MOCLDY    53  33  46 E3        30.35F
6HR MIN TEMP:  53; 6HR MAX TEMP:  56;

LOGANSPORT +   FAIR      52  27  37 NE9       30.35F
PERU/GRISSOM   CLOUDY    54  23  30 E14       30.34S
ROCHESTER +    FAIR      54  25  32 E7        30.35F
SOUTH BEND     MOCLDY    51  29  42 N5        30.36F
6HR MIN TEMP:  51; 6HR MAX TEMP:  56;

WARSAW +       FAIR      52  28  40 E6        30.35F

$$

INZ006>009-017-018-025>027-220100-
NORTHEAST INDIANA

CITY           SKY/WX    TMP DP  RH WIND       PRES   REMARKS
ANGOLA *+      MOCLDY    54  25  32 SE5       30.36F
AUBURN +       MOCLDY    52  30  43 E3        30.37F
FORT WAYNE     CLOUDY    51  29  42 E8        30.37F
6HR MIN TEMP:  51; 6HR MAX TEMP:  56;

HUNTINGTON +   FAIR      51  23  33 E6        30.35F
6HR MIN TEMP:  51; 6HR MAX TEMP:  55;


$$

INZ028-029-035-036-043>045-051>053-220100-
WEST CENTRAL INDIANA

CITY           SKY/WX    TMP DP  RH WIND       PRES   REMARKS
CRAWFORDSVL +  FAIR      55  26  32 NE10      30.31R
6HR MIN TEMP:  55; 6HR MAX TEMP:  59;

GREENCASTLE +  FAIR      55  25  30 E7        30.30R
LAFAYETTE      FAIR      54  24  31 E14G21    30.32S
6HR MIN TEMP:  54; 6HR MAX TEMP:  60;

TERRE HAUTE    FAIR      57  30  35 E10       30.28R
6HR MIN TEMP:  57; 6HR MAX TEMP:  63;


$$

INZ030>032-037>040-046>048-054>057-064-065-220100-
CENTRAL INDIANA

CITY           SKY/WX    TMP DP  RH WIND       PRES   REMARKS
COLUMBUS       CLOUDY    57 N/A N/A E9        30.28F
FRANKFORT +    FAIR      57  25  29 E12       30.34S
6HR MIN TEMP:  57; 6HR MAX TEMP:  64;

INDIANAPOLIS   CLOUDY    58  20  22 E13       30.31S
6HR MIN TEMP:  58; 6HR MAX TEMP:  60;

-EAGLE CREEK   FAIR      58  22  24 E10       30.30S
6HR MIN TEMP:  57; 6HR MAX TEMP:  61;

KOKOMO +       MOCLDY    52  29  41 NE10      30.35F
6HR MIN TEMP:  52; 6HR MAX TEMP:  58;

MARION +       FAIR      52  24  34 E6        30.35F
MT COMFORT *+  FAIR      54  30  40 E9        30.32S
SHELBYVILLE    FAIR      57  25  29 NE10      30.30S
6HR MIN TEMP:  57; 6HR MAX TEMP:  63;

ZIONSVILLE +   FAIR      54  23  30 NE8       30.32S
6HR MIN TEMP:  54; 6HR MAX TEMP:  60;


$$

INZ033-034-041-042-049-050-058-059-220100-
EAST CENTRAL INDIANA

CITY           SKY/WX    TMP DP  RH WIND       PRES   REMARKS
MUNCIE         FAIR      55  23  28 E12       30.33F
6HR MIN TEMP:  55; 6HR MAX TEMP:  60;

RICHMOND +     FAIR      48  32  53 E7        30.33S

$$

INZ060-061-067>069-081>083-085>088-220100-
SOUTHWEST INDIANA

CITY           SKY/WX    TMP DP  RH WIND       PRES   REMARKS
EVANSVILLE     FAIR      66  32  28 E7        30.21R
6HR MIN TEMP:  66; 6HR MAX TEMP:  70;

HUNTINGBURG +  FAIR      64  31  28 E10       30.22R
6HR MIN TEMP:  64; 6HR MAX TEMP:  70;

WASHINGTON +   FAIR      61  32  33 NE7       30.24R
6HR MIN TEMP:  61; 6HR MAX TEMP:  67;


$$

INZ062-063-066-070>080-084-089>092-220100-
SOUTH CENTRAL AND SOUTHEAST INDIANA

CITY           SKY/WX    TMP DP  RH WIND       PRES   REMARKS
BATESVILLE +   CLEAR     54  27  35 MISG      30.30S
BLOOMINGTON    FAIR      58  24  27 NE9       30.27R
6HR MIN TEMP:  58; 6HR MAX TEMP:  65;

FRENCH LICK *+ FAIR      61  19  20 NE10G18   30.24R
MADISON *+     FAIR      59  19  21 NE12      30.28F
NORTH VERNON + FAIR      54  27  35 NE10      30.28F
SEYMOUR +      FAIR      59  30  33 NE12      30.27

$$




USA.gov is the U.S. government's official web portal to all federal, state and local government web resources and services.